User: anonymous   Login
Location: Festilli
(46.4000°N, 11.6667°E)
Time: 23:53:04
(UTC+00:00)
Language:

Cosmos 2369 Rocket - Orbit

View from above orbital plane
View from above orbital plane
View from above satellite
View from above satellite

Ground track
Ground track

The orbit data is extracted from the following two-line orbital elements,

1 26070U 00006B   21129.51665916 -.00000101  00000-0 -27394-4 0  9998
2 26070  71.0034 208.0655 0017300 340.4604  19.5853 14.15477262 98771
Epoch (UTC): 09 May 2021 12:23:59
Eccentricity: 0.0017300
inclination: 71.0034°
perigee height: 828 km
apogee height: 853 km
right ascension of ascending node: 208.0655°
argument of perigee: 340.4604°
revolutions per day: 14.15477262
mean anomaly at epoch: 19.5853°
orbit number at epoch: 9877

The dashed part of the orbit path shows where the satellite is in the earth's shadow,  

DLR